Вернуться в каталог

THOR AGENA B R/B

АктивенUNKNOWN
NORAD 1807·ROCKET BODY·🇺🇸 United States

Запущен Nov 29, 1965 с Vandenberg Space Force Base

Loading…

Ближайшие Пролёты (ближайшие 24 часа)

TLE

СвежийSource: Space-Track

Эпоха: Sep 14, 2026, 03:52 UTC

1 01807U 65098C   26257.16178583  .00000814  00000-0  26661-3 0  9992
2 01807  79.8378 326.0765 1330738 210.0986 141.6724 12.28209243684220

Отслеживайте THOR AGENA B R/B в реальном времени с AllMySat

Download on the App Store